Flag for Sweden Weather past 2 weeks in Gävle, Sweden

Now
87 °F

Pleasantly warm.


Feels Like: 86 °F
Forecast: 64 / 85 °F
Wind: 3 mph from South

Location: Films Kyrkby

Current Time: Jul 26, 2014 at 4:15:32 PM

Latest Report: Jul 26, 2014 at 3:00 PM


Visibility: 19 mi

Pressure: 30.08 "Hg

Humidity: 36%

Dew point: 57 °F

Location of GävleLocation

Historic Weather in Gävle — Graph

°F

Gävle temperature yesterday

Maximum temperature yesterday: 88 °F (at 2:00 PM)
Minimum temperature yesterday: 58 °F (at 1:00 AM)
Average temperature yesterday: 74 °F

Past Weeks' High & Low Weather Summary

 TemperatureHumidityPressure
High88 °F (Jul 25, 2:00 PM)100% (Jul 20, 5:00 AM)30.33 "Hg (Jul 20, 5:00 AM)
Low44 °F (Jul 12, 4:00 AM)31% (Jul 23, 3:00 PM)29.75 "Hg (Jul 14, 2:00 AM)
Average68 °F73%30.07 "Hg
* Reported Jul 11 3:00 PM — Jul 26 3:00 PM, Gävle, Weather by CustomWeather, © 2014

Note: Actual official high and low records may vary slightly from our data, if they occured in-between our weather recording intervals... More about our weather records

Advertising

Gävle weather history for previous 24 hours

 ConditionsComfort  
Time TempWeatherWind HumidityBarometerVisibility
3:00 PM
Jul 26
87 °FPleasantly warm.3 mph36%30.08 "Hg19 mi
2:00 PM86 °FPleasantly warm.1 mph36%30.10 "Hg25 mi
1:00 PM88 °FHot.2 mph33%30.11 "Hg22 mi
12:00 PM86 °FPleasantly warm.1 mph32%30.13 "Hg22 mi
11:00 AM85 °FPleasantly warm.2 mph31%30.14 "Hg28 mi
10:00 AM82 °FWarm.2 mph41%30.14 "Hg25 mi
9:00 AM78 °FWarm.2 mph54%30.15 "Hg25 mi
8:00 AM74 °FMild.2 mph57%30.15 "Hg19 mi
7:00 AM68 °FMild.1 mph74%30.15 "Hg22 mi
6:00 AM62 °FCool.1 mph91%30.16 "Hg22 mi
5:00 AM57 °FCool.No wind97%30.16 "Hg19 mi
4:00 AM57 °FCool.No wind95%30.16 "Hg25 mi
3:00 AM58 °FCool.No wind93%30.16 "Hg22 mi
2:00 AM60 °FCool.No wind89%30.16 "Hg31 mi
1:00 AM60 °FCool.No wind89%30.17 "Hg28 mi
12:00 AM62 °FCool.No wind82%30.16 "Hg31 mi
11:00 PM
Jul 25
65 °FMild.No wind73%30.16 "Hg31 mi
10:00 PM68 °FMild.No wind64%30.16 "Hg31 mi
9:00 PM75 °FMild.1 mph48%30.15 "Hg31 mi
8:00 PM80 °FWarm.2 mph41%30.15 "Hg25 mi
7:00 PM83 °FPleasantly warm.2 mph36%30.14 "Hg31 mi
6:00 PM85 °FPleasantly warm.3 mph36%30.15 "Hg25 mi
5:00 PM86 °FPleasantly warm.3 mph35%30.15 "Hg22 mi
4:00 PM87 °FPleasantly warm.2 mph36%30.16 "Hg25 mi
Weather by CustomWeather, © 2014

See weather overviewHow to use our weather pages